Location: Newark
(21.1200°N, 73.4000°E)
Time: 04:19:41
(UTC+00:00)

Courier 1B Rocket - Pass Details

Date: 21 January 2020
Orbit: 920 x 1202 km, 28.2° (Epoch: 17 February)

Event Time Altitude Azimuth Distance (km) Brightness Sun altitude
Rises 07:35:07 0° 253° (WSW) 3,878 8.3 48.7°
Reaches altitude 10° 07:37:57 10° 254° (WSW) 2,879 7.8 48.6°
Maximum altitude 07:44:57 79° 340° (NNW) 1,023 5.9 48.3°
Drops below altitude 10° 07:51:29 10° 68° (ENE) 2,686 7.2 48.1°
Sets 07:54:03 0° 70° (ENE) 3,604 7.8 47.9°
